This is the latest recevied weather packets stored in our database for station/object DL3TR-13. If no packets are shown the sender has not sent any weather packets the latest 10 day(s).
| Time | Temp. | Humidity | Pressure | Rain* | Wind** | Luminosity | Snow |
|---|---|---|---|---|---|---|---|
| 1777303392 | 20° C | 35% | 1016.7 hPa | 0 mm | - | 478 W/m² | - |
| 1777302792 | 20° C | 35% | 1016.7 hPa | 0 mm | - | 464 W/m² | - |
| 1777302192 | 20° C | 35% | 1016.6 hPa | 0 mm | - | 482 W/m² | - |
| 1777301592 | 20.56° C | 36% | 1016.7 hPa | 0 mm | - | 557 W/m² | - |
| 1777300992 | 20.56° C | 33% | 1016.8 hPa | 0 mm | - | 489 W/m² | - |
| 1777300392 | 20° C | 34% | 1017 hPa | 0 mm | - | 559 W/m² | - |
| 1777299792 | 20° C | 34% | 1017 hPa | 0 mm | - | 524 W/m² | - |
| 1777299192 | 20.56° C | 37% | 1017 hPa | 0 mm | - | 554 W/m² | - |
| 1777298592 | 20.56° C | 35% | 1017.2 hPa | 0 mm | - | 582 W/m² | - |
| 1777297992 | 20° C | 33% | 1017.2 hPa | 0 mm | - | 624 W/m² | - |
| 1777297392 | 20.56° C | 34% | 1017.3 hPa | 0 mm | - | 708 W/m² | - |
| 1777296792 | 20.56° C | 36% | 1017.4 hPa | 0 mm | - | 610 W/m² | - |
| 1777296192 | 21.11° C | 36% | 1017.6 hPa | 0 mm | - | 694 W/m² | - |
| 1777295592 | 20.56° C | 35% | 1017.7 hPa | 0 mm | - | 735 W/m² | - |
| 1777294992 | 20.56° C | 36% | 1017.8 hPa | 0 mm | - | 738 W/m² | - |
| 1777294392 | 20.56° C | 38% | 1017.8 hPa | 0 mm | - | 701 W/m² | - |
| 1777293793 | 20.56° C | 35% | 1017.9 hPa | 0 mm | - | 770 W/m² | - |
| 1777293192 | 20.56° C | 35% | 1018 hPa | 0 mm | - | 789 W/m² | - |
| 1777292592 | 20.56° C | 37% | 1018.1 hPa | 0 mm | - | 793 W/m² | - |
| 1777291992 | 20° C | 37% | 1018.2 hPa | 0 mm | - | 800 W/m² | - |
| 1777291392 | 20° C | 36% | 1018.3 hPa | 0 mm | - | 807 W/m² | - |
| 1777290792 | 20° C | 36% | 1018.4 hPa | 0 mm | - | 807 W/m² | - |
| 1777290192 | 20° C | 37% | 1018.4 hPa | 0 mm | - | 816 W/m² | - |
| 1777289592 | 20° C | 37% | 1018.5 hPa | 0 mm | - | 821 W/m² | - |
| 1777288992 | 20.56° C | 39% | 1018.4 hPa | 0 mm | - | 817 W/m² | - |
* Rain latest hour (hover to see other rain measurements)
** Current wind speed in m/s (hover to see current wind gust speed)